Location: McLaughlin
(0.0000°N, 0.0000°E)
Time: 07:40:21
(UTC+00:00)

Envisat - Pass Details

Date: 25 June 2019
Orbit: 764 x 766 km, 98.1° (Epoch: 20 July)

Event Time Altitude Azimuth Distance (km) Brightness Sun altitude
Rises 19:39:21 0° 194° (SSW) 3,231 6.1 -22.1°
Reaches altitude 10° 19:42:10 10° 209° (SSW) 2,303 5.5 -22.7°
Maximum altitude 19:45:55 21° 258° (WSW) 1,664 5.3 -23.5°
Drops below altitude 10° 19:49:40 10° 306° (NW) 2,296 6.5 -24.4°
Sets 19:52:29 0° 322° (NW) 3,218 7.3 -25.0°
